SND1 SBFN-GCXO

Flight info

Callsign SND1
Flight time 4h 43m
Altitude 27000
Route UTRAM UB623 CVS/N0450F370 UN873 IPERA N873 UDATI/N0446F380 DCT MERAN DCT COSSE
Aircraft A319/M-SDE3FGHIRWY/LB1

Departure

Time 2026-04-22 09:27
Airport Fernando de Noronha Airport (SBFN)

Arrival

Time 2026-04-22 14:10
Airport Tenerife Norte-Ciudad de La Laguna Airport (GCXO)
Time Latitude Longitude Altitude Speed Heading
2026-04-22 09:18 -3.85594 -32.42908 182 ft 0 kts 135°
2026-04-22 09:24 -3.85594 -32.42906 182 ft 1 kts 124°
2026-04-22 09:24 -3.85592 -32.42902 182 ft 1 kts 71°
2026-04-22 09:24 -3.85587 -32.42900 182 ft 1 kts 30°
2026-04-22 09:24 -3.85575 -32.42902 183 ft 3 kts 347°
2026-04-22 09:25 -3.85544 -32.42917 189 ft 7 kts 329°
2026-04-22 09:25 -3.85494 -32.42950 187 ft 11 kts 326°
2026-04-22 09:25 -3.85425 -32.42997 195 ft 12 kts 325°
2026-04-22 09:25 -3.85391 -32.43059 193 ft 10 kts 268°
2026-04-22 09:26 -3.85417 -32.43112 194 ft 8 kts 263°
2026-04-22 09:26 -3.85384 -32.43121 194 ft 6 kts 53°
2026-04-22 09:26 -3.85393 -32.42997 191 ft 50 kts 95°
2026-04-22 09:26 -3.85439 -32.42380 177 ft 123 kts 94°
2026-04-22 09:27 -3.85520 -32.41385 460 ft 149 kts 94°
2026-04-22 09:27 -3.85586 -32.40338 1076 ft 152 kts 93°
2026-04-22 09:27 -3.85665 -32.39288 1731 ft 150 kts 95°
2026-04-22 09:27 -3.85755 -32.38192 2158 ft 169 kts 92°
2026-04-22 09:28 -3.85382 -32.37017 2483 ft 192 kts 51°
2026-04-22 09:28 -3.84215 -32.36238 2760 ft 218 kts 14°
2026-04-22 09:28 -3.82625 -32.36256 3175 ft 244 kts 346°
2026-04-22 09:28 -3.80923 -32.36761 3725 ft 264 kts 341°
2026-04-22 09:29 -3.79147 -32.37344 4591 ft 272 kts 343°
2026-04-22 09:29 -3.77264 -32.37627 5478 ft 277 kts
2026-04-22 09:29 -3.75340 -32.37368 6369 ft 283 kts 16°
2026-04-22 09:29 -3.73526 -32.36585 7213 ft 286 kts 29°
2026-04-22 09:30 -3.71758 -32.35633 8085 ft 290 kts 28°
2026-04-22 09:30 -3.69961 -32.34676 8940 ft 294 kts 28°
2026-04-22 09:30 -3.68135 -32.33712 9798 ft 299 kts 28°
2026-04-22 09:30 -3.66260 -32.32727 10337 ft 313 kts 28°
2026-04-22 09:31 -3.64261 -32.31675 10587 ft 337 kts 28°
2026-04-22 09:31 -3.62127 -32.30548 11002 ft 351 kts 28°
2026-04-22 09:31 -3.59946 -32.29396 11658 ft 357 kts 29°
2026-04-22 09:31 -3.57729 -32.28230 12358 ft 361 kts 29°
2026-04-22 09:32 -3.55494 -32.27055 13060 ft 365 kts 29°
2026-04-22 09:32 -3.53234 -32.25867 13750 ft 369 kts 29°
2026-04-22 09:32 -3.50948 -32.24666 14350 ft 373 kts 29°
2026-04-22 09:32 -3.48668 -32.23469 14956 ft 376 kts 29°
2026-04-22 09:33 -3.46340 -32.22246 15557 ft 380 kts 29°
2026-04-22 09:33 -3.43984 -32.21004 16156 ft 383 kts 29°
2026-04-22 09:33 -3.41618 -32.19754 16745 ft 387 kts 29°
2026-04-22 09:33 -3.39223 -32.18489 17327 ft 391 kts 29°
2026-04-22 09:34 -3.36809 -32.17216 17921 ft 394 kts 28°
2026-04-22 09:34 -3.34374 -32.15937 18461 ft 398 kts 28°
2026-04-22 09:34 -3.31914 -32.14645 18981 ft 400 kts 28°
2026-04-22 09:35 -3.26948 -32.12043 20050 ft 405 kts 27°
2026-04-22 09:35 -3.24402 -32.10828 20582 ft 407 kts 25°
2026-04-22 09:35 -3.21784 -32.09692 21123 ft 410 kts 23°
2026-04-22 09:35 -3.19139 -32.08608 21652 ft 412 kts 22°
2026-04-22 09:36 -3.16475 -32.07536 22172 ft 413 kts 22°
2026-04-22 09:36 -3.13802 -32.06452 22674 ft 415 kts 22°
2026-04-22 09:36 -3.11122 -32.05345 23166 ft 417 kts 23°
2026-04-22 09:36 -3.08442 -32.04216 23620 ft 419 kts 23°
2026-04-22 09:37 -3.05742 -32.03065 23994 ft 421 kts 24°
2026-04-22 09:37 -3.03077 -32.01923 24362 ft 423 kts 24°
2026-04-22 09:37 -3.00364 -32.00761 24742 ft 425 kts 24°
2026-04-22 09:37 -2.97635 -31.99595 25109 ft 427 kts 24°
2026-04-22 09:38 -2.94897 -31.98426 25474 ft 429 kts 24°
2026-04-22 09:38 -2.92141 -31.97251 25836 ft 431 kts 24°
2026-04-22 09:38 -2.89378 -31.96078 26198 ft 433 kts 24°
2026-04-22 09:38 -2.86593 -31.94896 26557 ft 435 kts 24°
2026-04-22 09:39 -2.83804 -31.93713 26893 ft 437 kts 24°
2026-04-22 09:39 -2.80998 -31.92525 27227 ft 439 kts 24°
2026-04-22 09:39 -2.78173 -31.91329 27562 ft 441 kts 24°
2026-04-22 09:39 -2.75338 -31.90126 27891 ft 444 kts 24°
2026-04-22 09:40 -2.72490 -31.88915 28229 ft 445 kts 24°
2026-04-22 09:40 -2.69630 -31.87701 28548 ft 448 kts 24°
2026-04-22 09:40 -2.66756 -31.86482 28853 ft 450 kts 24°
2026-04-22 09:40 -2.63864 -31.85255 29164 ft 452 kts 24°
2026-04-22 09:41 -2.60966 -31.84018 29457 ft 454 kts 24°
2026-04-22 09:41 -2.58054 -31.82770 29744 ft 457 kts 24°
2026-04-22 09:41 -2.55122 -31.81513 30038 ft 459 kts 24°
2026-04-22 09:41 -2.52185 -31.80258 30293 ft 460 kts 24°
2026-04-22 09:42 -2.49231 -31.79000 30559 ft 462 kts 24°
2026-04-22 09:42 -2.46268 -31.77742 30822 ft 463 kts 24°
2026-04-22 09:42 -2.43299 -31.76484 31092 ft 464 kts 24°
2026-04-22 09:42 -2.40332 -31.75228 31476 ft 462 kts 25°
2026-04-22 09:43 -2.37382 -31.73978 31877 ft 460 kts 25°
2026-04-22 09:43 -2.34442 -31.72734 32270 ft 458 kts 25°
2026-04-22 09:43 -2.31507 -31.71492 32670 ft 456 kts 25°
2026-04-22 09:43 -2.28586 -31.70255 33071 ft 455 kts 25°
2026-04-22 09:44 -2.25678 -31.69022 33479 ft 453 kts 25°
2026-04-22 09:44 -2.22778 -31.67792 33891 ft 452 kts 25°
2026-04-22 09:44 -2.19888 -31.66565 34268 ft 450 kts 25°
2026-04-22 09:44 -2.17013 -31.65343 34606 ft 449 kts 25°
2026-04-22 09:45 -2.14139 -31.64121 34937 ft 448 kts 26°
2026-04-22 09:45 -2.11270 -31.62900 35256 ft 448 kts 26°
2026-04-22 09:45 -2.08408 -31.61683 35549 ft 447 kts 26°
2026-04-22 09:45 -2.05543 -31.60469 35849 ft 447 kts 26°
2026-04-22 09:46 -2.02681 -31.59256 36142 ft 446 kts 26°
2026-04-22 09:46 -1.99820 -31.58044 36429 ft 446 kts 26°
2026-04-22 09:46 -1.96963 -31.56833 36712 ft 446 kts 26°
2026-04-22 09:46 -1.94110 -31.55624 36931 ft 446 kts 26°
2026-04-22 09:47 -1.88403 -31.53208 36968 ft 444 kts 26°
2026-04-22 09:47 -1.82716 -31.50800 36971 ft 444 kts 26°
2026-04-22 09:48 -1.77017 -31.48385 36973 ft 444 kts 27°
2026-04-22 09:48 -1.71326 -31.45971 36972 ft 444 kts 26°
2026-04-22 09:49 -1.65671 -31.43570 36968 ft 444 kts 26°
2026-04-22 09:49 -1.59978 -31.41157 36966 ft 444 kts 26°
2026-04-22 09:50 -1.55210 -31.39135 36971 ft 444 kts 26°
2026-04-22 09:50 -1.48589 -31.36331 36969 ft 445 kts 26°
2026-04-22 09:51 -1.43852 -31.34319 36970 ft 445 kts 26°
2026-04-22 09:51 -1.38149 -31.31896 36973 ft 445 kts 26°
2026-04-22 09:52 -1.32446 -31.29478 36970 ft 445 kts 26°
2026-04-22 09:52 -1.26748 -31.27064 36971 ft 445 kts 26°
2026-04-22 09:53 -1.21047 -31.24648 36976 ft 445 kts 26°
2026-04-22 09:53 -1.15351 -31.22232 36978 ft 445 kts 26°
2026-04-22 09:54 -1.09656 -31.19820 36976 ft 444 kts 26°
2026-04-22 09:54 -1.03952 -31.17402 36978 ft 444 kts 26°
2026-04-22 09:55 -0.98254 -31.14989 36978 ft 444 kts 26°
2026-04-22 09:55 -0.92557 -31.12576 36974 ft 445 kts 26°
2026-04-22 09:56 -0.86893 -31.10177 36974 ft 445 kts 26°
2026-04-22 09:56 -0.81198 -31.07757 36968 ft 445 kts 26°
2026-04-22 09:57 -0.75539 -31.05230 36971 ft 444 kts 27°
2026-04-22 09:57 -0.69913 -31.02664 36971 ft 445 kts 27°
2026-04-22 09:58 -0.64270 -31.00114 36969 ft 445 kts 27°
2026-04-22 09:58 -0.58615 -30.97588 36973 ft 445 kts 27°
2026-04-22 09:59 -0.52964 -30.95057 36968 ft 445 kts 27°
2026-04-22 09:59 -0.47309 -30.92516 36969 ft 445 kts 27°
2026-04-22 10:00 -0.41649 -30.89982 36972 ft 446 kts 27°
2026-04-22 10:00 -0.35985 -30.87446 36971 ft 446 kts 27°
2026-04-22 10:01 -0.30314 -30.84904 36971 ft 446 kts 27°
2026-04-22 10:01 -0.24648 -30.82369 36968 ft 447 kts 27°
2026-04-22 10:02 -0.18977 -30.79828 36972 ft 447 kts 27°
2026-04-22 10:02 -0.13306 -30.77282 36973 ft 447 kts 27°
2026-04-22 10:03 -0.07625 -30.74736 36967 ft 447 kts 27°
2026-04-22 10:03 -0.01942 -30.72193 36970 ft 448 kts 27°
2026-04-22 10:04 0.03748 -30.69638 36969 ft 448 kts 28°
2026-04-22 10:04 0.09434 -30.67074 36975 ft 448 kts 28°
2026-04-22 10:05 0.15097 -30.64539 36979 ft 448 kts 27°
2026-04-22 10:05 0.20790 -30.61997 36979 ft 448 kts 27°
2026-04-22 10:06 0.26485 -30.59442 36978 ft 448 kts 27°
2026-04-22 10:06 0.32178 -30.56889 36981 ft 448 kts 27°
2026-04-22 10:07 0.37876 -30.54347 36979 ft 448 kts 27°
2026-04-22 10:07 0.43569 -30.51795 36980 ft 448 kts 27°
2026-04-22 10:08 0.49260 -30.49237 36980 ft 448 kts 27°
2026-04-22 10:08 0.54960 -30.46680 36976 ft 449 kts 27°
2026-04-22 10:09 0.60623 -30.44145 36975 ft 449 kts 27°
2026-04-22 10:09 0.66322 -30.41584 36976 ft 449 kts 27°
2026-04-22 10:10 0.72031 -30.39020 36970 ft 450 kts 27°
2026-04-22 10:10 0.77752 -30.36459 36971 ft 450 kts 27°
2026-04-22 10:11 0.83484 -30.33892 36971 ft 451 kts 27°
2026-04-22 10:11 0.89211 -30.31322 36973 ft 451 kts 27°
2026-04-22 10:12 0.94947 -30.28749 36974 ft 452 kts 27°
2026-04-22 10:12 1.00687 -30.26179 36970 ft 452 kts 27°
2026-04-22 10:13 1.06401 -30.23617 36970 ft 453 kts 27°
2026-04-22 10:13 1.12160 -30.21031 36968 ft 453 kts 27°
2026-04-22 10:14 1.17912 -30.18448 36972 ft 454 kts 27°
2026-04-22 10:14 1.23686 -30.15864 36968 ft 454 kts 27°
2026-04-22 10:15 1.29456 -30.13277 36971 ft 455 kts 27°
2026-04-22 10:15 1.35244 -30.10679 36966 ft 456 kts 27°
2026-04-22 10:16 1.41031 -30.08077 36968 ft 456 kts 27°
2026-04-22 10:16 1.46842 -30.05475 36964 ft 457 kts 27°
2026-04-22 10:17 1.52644 -30.02868 36966 ft 458 kts 27°
2026-04-22 10:17 1.58431 -30.00267 36967 ft 459 kts 27°
2026-04-22 10:18 1.64266 -29.97656 36967 ft 459 kts 27°
2026-04-22 10:18 1.70106 -29.95036 36970 ft 460 kts 27°
2026-04-22 10:19 1.75947 -29.92410 36971 ft 460 kts 27°
2026-04-22 10:19 1.81794 -29.89787 36974 ft 461 kts 27°
2026-04-22 10:20 1.87659 -29.87163 36977 ft 461 kts 27°
2026-04-22 10:20 1.93508 -29.84534 36978 ft 462 kts 27°
2026-04-22 10:21 1.99373 -29.81897 36975 ft 462 kts 27°
2026-04-22 10:21 2.05242 -29.79261 36972 ft 463 kts 27°
2026-04-22 10:22 2.11128 -29.76626 36975 ft 463 kts 27°
2026-04-22 10:22 2.17018 -29.73987 36975 ft 464 kts 27°
2026-04-22 10:23 2.22909 -29.71342 36981 ft 464 kts 27°
2026-04-22 10:23 2.28807 -29.68691 36978 ft 465 kts 27°
2026-04-22 10:24 2.34707 -29.66033 36981 ft 465 kts 27°
2026-04-22 10:24 2.40586 -29.63393 36977 ft 466 kts 27°
2026-04-22 10:25 2.46504 -29.60743 36976 ft 466 kts 27°
2026-04-22 10:25 2.52420 -29.58084 36977 ft 466 kts 27°
2026-04-22 10:26 2.58352 -29.55423 36976 ft 467 kts 27°
2026-04-22 10:26 2.64284 -29.52759 36975 ft 467 kts 27°
2026-04-22 10:27 2.70212 -29.50094 36977 ft 468 kts 27°
2026-04-22 10:27 2.76160 -29.47422 36976 ft 468 kts 27°
2026-04-22 10:28 2.82101 -29.44749 36976 ft 468 kts 27°
2026-04-22 10:28 2.88017 -29.42085 36977 ft 469 kts 27°
2026-04-22 10:29 2.93962 -29.39413 36974 ft 469 kts 27°
2026-04-22 10:29 2.99920 -29.36734 36976 ft 469 kts 27°
2026-04-22 10:30 3.05878 -29.34055 36975 ft 469 kts 27°
2026-04-22 10:30 3.10835 -29.31826 36977 ft 470 kts 27°
2026-04-22 10:31 3.16801 -29.29145 36980 ft 470 kts 27°
2026-04-22 10:31 3.23769 -29.26006 36979 ft 470 kts 27°
2026-04-22 10:32 3.28724 -29.23776 36983 ft 469 kts 27°
2026-04-22 10:32 3.34689 -29.21101 36982 ft 469 kts 27°
2026-04-22 10:33 3.40651 -29.18424 36986 ft 469 kts 27°
2026-04-22 10:33 3.46608 -29.15739 36985 ft 469 kts 27°
2026-04-22 10:34 3.52562 -29.13049 36984 ft 469 kts 27°
2026-04-22 10:34 3.58519 -29.10367 36984 ft 469 kts 27°
2026-04-22 10:35 3.64437 -29.07702 36977 ft 469 kts 27°
2026-04-22 10:35 3.70401 -29.05020 36979 ft 469 kts 27°
2026-04-22 10:36 3.76350 -29.02334 36979 ft 469 kts 27°
2026-04-22 10:36 3.82309 -28.99646 36979 ft 469 kts 27°
2026-04-22 10:37 3.91262 -28.95622 36975 ft 469 kts 27°
2026-04-22 10:38 3.97218 -28.92936 36979 ft 470 kts 27°
2026-04-22 10:38 4.03182 -28.90254 36976 ft 470 kts 27°
2026-04-22 10:39 4.09144 -28.87564 36975 ft 470 kts 27°
2026-04-22 10:39 4.15068 -28.84891 36976 ft 470 kts 27°
2026-04-22 10:40 4.21044 -28.82197 36972 ft 470 kts 27°
2026-04-22 10:40 4.27017 -28.79501 36978 ft 471 kts 27°
2026-04-22 10:41 4.32996 -28.76812 36976 ft 471 kts 27°
2026-04-22 10:41 4.38989 -28.74114 36979 ft 471 kts 27°
2026-04-22 10:42 4.44972 -28.71413 36982 ft 472 kts 27°
2026-04-22 10:42 4.50954 -28.68700 36979 ft 472 kts 27°
2026-04-22 10:43 4.56939 -28.65993 36980 ft 472 kts 27°
2026-04-22 10:43 4.62895 -28.63306 36982 ft 472 kts 27°
2026-04-22 10:44 4.68887 -28.60609 36983 ft 472 kts 27°
2026-04-22 10:44 4.74886 -28.57902 36986 ft 473 kts 27°
2026-04-22 10:45 4.80886 -28.55193 36988 ft 473 kts 27°
2026-04-22 10:45 4.86886 -28.52485 36988 ft 473 kts 27°
2026-04-22 10:46 4.92885 -28.49771 36989 ft 473 kts 27°
2026-04-22 10:46 4.98885 -28.47052 36989 ft 473 kts 27°
2026-04-22 10:47 5.04898 -28.44334 36994 ft 473 kts 27°
2026-04-22 10:47 5.10864 -28.41636 36993 ft 473 kts 27°
2026-04-22 10:48 5.16873 -28.38920 36994 ft 473 kts 27°
2026-04-22 10:48 5.22873 -28.36201 36997 ft 473 kts 27°
2026-04-22 10:49 5.28879 -28.33484 36999 ft 474 kts 27°
2026-04-22 10:49 5.34898 -28.30761 36997 ft 474 kts 27°
2026-04-22 10:50 5.40909 -28.28043 36998 ft 474 kts 27°
2026-04-22 10:50 5.46922 -28.25322 37000 ft 474 kts 27°
2026-04-22 10:51 5.52942 -28.22593 37000 ft 475 kts 27°
2026-04-22 10:51 5.58964 -28.19861 36997 ft 475 kts 27°
2026-04-22 10:52 5.64992 -28.17130 37001 ft 475 kts 27°
2026-04-22 10:52 5.70978 -28.14414 37004 ft 476 kts 27°
2026-04-22 10:53 5.77021 -28.11679 37004 ft 476 kts 27°
2026-04-22 10:53 5.83062 -28.08942 37004 ft 476 kts 27°
2026-04-22 10:54 5.89106 -28.06204 37009 ft 477 kts 28°
2026-04-22 10:54 5.95156 -28.03463 37010 ft 477 kts 27°
2026-04-22 10:55 6.01213 -28.00715 37013 ft 477 kts 28°
2026-04-22 10:55 6.07268 -27.97956 37014 ft 477 kts 28°
2026-04-22 10:56 6.13317 -27.95203 37017 ft 477 kts 27°
2026-04-22 10:56 6.19371 -27.92460 37013 ft 477 kts 27°
2026-04-22 10:57 6.25419 -27.89719 37018 ft 476 kts 27°
2026-04-22 10:57 6.31417 -27.86995 37015 ft 476 kts 27°
2026-04-22 10:58 6.37459 -27.84248 37011 ft 476 kts 27°
2026-04-22 10:58 6.43506 -27.81504 37015 ft 476 kts 27°
2026-04-22 10:59 6.49543 -27.78758 37012 ft 476 kts 27°
2026-04-22 10:59 6.55576 -27.76012 37012 ft 476 kts 27°
2026-04-22 11:00 6.61610 -27.73265 37014 ft 476 kts 27°
2026-04-22 11:00 6.67643 -27.70513 37012 ft 476 kts 27°
2026-04-22 11:01 6.73680 -27.67769 37054 ft 476 kts 27°
2026-04-22 11:01 6.79676 -27.65049 37038 ft 475 kts 27°
2026-04-22 11:02 6.85694 -27.62311 37028 ft 474 kts 27°
2026-04-22 11:02 6.91708 -27.59580 37023 ft 474 kts 27°
2026-04-22 11:03 6.97708 -27.56835 37023 ft 473 kts 27°
2026-04-22 11:03 7.03704 -27.54087 37017 ft 473 kts 27°
2026-04-22 11:04 7.09718 -27.51355 37010 ft 473 kts 27°
2026-04-22 11:04 7.15730 -27.48621 37015 ft 474 kts 27°
2026-04-22 11:05 7.21736 -27.45874 37020 ft 474 kts 27°
2026-04-22 11:05 7.27755 -27.43127 37020 ft 475 kts 27°
2026-04-22 11:06 7.33779 -27.40372 37018 ft 475 kts 27°
2026-04-22 11:06 7.39797 -27.37629 37018 ft 475 kts 27°
2026-04-22 11:07 7.45819 -27.34886 37018 ft 475 kts 27°
2026-04-22 11:07 7.51800 -27.32161 37019 ft 475 kts 27°
2026-04-22 11:08 7.57827 -27.29409 37016 ft 475 kts 27°
2026-04-22 11:08 7.63848 -27.26658 37018 ft 475 kts 27°
2026-04-22 11:09 7.69870 -27.23899 37018 ft 475 kts 27°
2026-04-22 11:09 7.75888 -27.21143 37017 ft 475 kts 26°
2026-04-22 11:10 7.81907 -27.18391 37019 ft 475 kts 26°
2026-04-22 11:10 7.87922 -27.15635 37018 ft 475 kts 26°
2026-04-22 11:11 7.93944 -27.12882 37017 ft 475 kts 26°
2026-04-22 11:11 7.99962 -27.10129 37013 ft 475 kts 26°
2026-04-22 11:12 8.05983 -27.07381 37016 ft 475 kts 26°
2026-04-22 11:12 8.11996 -27.04625 37012 ft 474 kts 26°
2026-04-22 11:13 8.18000 -27.01863 37011 ft 474 kts 26°
2026-04-22 11:13 8.23977 -26.99119 37014 ft 475 kts 26°
2026-04-22 11:14 8.29992 -26.96366 37009 ft 475 kts 26°
2026-04-22 11:14 8.36056 -26.93587 37013 ft 475 kts 26°
2026-04-22 11:15 8.41067 -26.91288 37015 ft 475 kts 26°
2026-04-22 11:15 8.47089 -26.88519 37012 ft 476 kts 26°
2026-04-22 11:16 8.53115 -26.85746 37014 ft 476 kts 26°
2026-04-22 11:16 8.59106 -26.82998 37016 ft 476 kts 26°
2026-04-22 11:17 8.65144 -26.80221 37020 ft 476 kts 26°
2026-04-22 11:17 8.71183 -26.77440 37022 ft 476 kts 26°
2026-04-22 11:18 8.77210 -26.74662 37034 ft 476 kts 26°
2026-04-22 11:18 8.83245 -26.71888 37030 ft 476 kts 26°
2026-04-22 11:19 8.89273 -26.69110 37030 ft 476 kts 26°
2026-04-22 11:19 8.95304 -26.66331 37025 ft 476 kts 26°
2026-04-22 11:20 9.01331 -26.63559 37025 ft 476 kts 26°
2026-04-22 11:20 9.07356 -26.60782 37028 ft 476 kts 26°
2026-04-22 11:21 9.13341 -26.58018 37025 ft 476 kts 26°
2026-04-22 11:21 9.19361 -26.55237 37025 ft 476 kts 26°
2026-04-22 11:22 9.25392 -26.52459 37036 ft 476 kts 26°
2026-04-22 11:22 9.31427 -26.49673 37036 ft 476 kts 26°
2026-04-22 11:23 9.37458 -26.46882 37035 ft 477 kts 26°
2026-04-22 11:23 9.43496 -26.44093 37037 ft 477 kts 25°
2026-04-22 11:24 9.49539 -26.41306 37042 ft 477 kts 25°
2026-04-22 11:24 9.55577 -26.38508 37041 ft 477 kts 26°
2026-04-22 11:25 9.61623 -26.35709 37046 ft 477 kts 25°
2026-04-22 11:25 9.67668 -26.32914 37047 ft 477 kts 25°
2026-04-22 11:26 9.73712 -26.30121 37045 ft 477 kts 25°
2026-04-22 11:26 9.79728 -26.27341 37044 ft 477 kts 25°
2026-04-22 11:27 9.85760 -26.24545 37046 ft 476 kts 25°
2026-04-22 11:27 9.91777 -26.21747 37037 ft 476 kts 25°
2026-04-22 11:28 9.97805 -26.18951 37035 ft 476 kts 25°
2026-04-22 11:28 10.03831 -26.16157 37034 ft 476 kts 25°
2026-04-22 11:29 10.09854 -26.13355 37035 ft 476 kts 25°
2026-04-22 11:29 10.15874 -26.10560 37054 ft 477 kts 25°
2026-04-22 11:29 10.18905 -26.09157 36837 ft 479 kts 25°
2026-04-22 11:30 10.21935 -26.07752 37070 ft 479 kts 25°
2026-04-22 11:30 10.24974 -26.06340 37419 ft 478 kts 25°
2026-04-22 11:30 10.27998 -26.04933 37733 ft 478 kts 25°
2026-04-22 11:30 10.31023 -26.03522 38047 ft 478 kts 26°
2026-04-22 11:31 10.34042 -26.02117 38342 ft 477 kts 25°
2026-04-22 11:31 10.37028 -26.00731 38624 ft 477 kts 26°
2026-04-22 11:31 10.40085 -25.99314 38872 ft 477 kts 26°
2026-04-22 11:31 10.43112 -25.97907 39001 ft 478 kts 26°
2026-04-22 11:32 10.46135 -25.96497 39033 ft 478 kts 26°
2026-04-22 11:32 10.52139 -25.93704 39031 ft 478 kts 26°
2026-04-22 11:33 10.58193 -25.90891 39034 ft 478 kts 26°
2026-04-22 11:33 10.64247 -25.88069 39031 ft 479 kts 26°
2026-04-22 11:34 10.70306 -25.85246 39036 ft 479 kts 26°
2026-04-22 11:34 10.76368 -25.82411 39042 ft 480 kts 26°
2026-04-22 11:35 10.82447 -25.79576 39042 ft 480 kts 26°
2026-04-22 11:35 10.88528 -25.76740 39047 ft 481 kts 26°
2026-04-22 11:36 10.94623 -25.73897 39050 ft 482 kts 25°
2026-04-22 11:36 11.00686 -25.71067 39047 ft 482 kts 26°
2026-04-22 11:37 11.06791 -25.68214 39049 ft 483 kts 25°
2026-04-22 11:37 11.12902 -25.65361 39052 ft 483 kts 25°
2026-04-22 11:38 11.19015 -25.62503 39053 ft 483 kts 25°
2026-04-22 11:38 11.28188 -25.58209 39052 ft 484 kts 25°
2026-04-22 11:39 11.34311 -25.55334 39054 ft 484 kts 25°
2026-04-22 11:39 11.40437 -25.52466 39056 ft 484 kts 25°
2026-04-22 11:40 11.46570 -25.49586 39060 ft 485 kts 25°
2026-04-22 11:40 11.52700 -25.46714 39058 ft 485 kts 25°
2026-04-22 11:41 11.58837 -25.43835 39059 ft 485 kts 25°
2026-04-22 11:41 11.64979 -25.40951 39055 ft 485 kts 25°
2026-04-22 11:42 11.71118 -25.38072 39057 ft 486 kts 25°
2026-04-22 11:42 11.77252 -25.35189 39058 ft 486 kts 25°
2026-04-22 11:43 11.83359 -25.32317 39056 ft 486 kts 25°
2026-04-22 11:43 11.89505 -25.29427 39056 ft 486 kts 25°
2026-04-22 11:44 11.95649 -25.26534 39055 ft 486 kts 25°
2026-04-22 11:44 12.01796 -25.23640 39054 ft 486 kts 25°
2026-04-22 11:45 12.07940 -25.20749 39055 ft 486 kts 25°
2026-04-22 11:45 12.14093 -25.17853 39055 ft 487 kts 25°
2026-04-22 11:46 12.20255 -25.14949 39053 ft 487 kts 25°
2026-04-22 11:46 12.26402 -25.12041 39054 ft 487 kts 25°
2026-04-22 11:47 12.32555 -25.09131 39053 ft 487 kts 25°
2026-04-22 11:47 12.38707 -25.06227 39053 ft 487 kts 25°
2026-04-22 11:48 12.44858 -25.03322 39053 ft 487 kts 25°
2026-04-22 11:48 12.51010 -25.00409 39052 ft 487 kts 24°
2026-04-22 11:49 12.57169 -24.97499 39053 ft 487 kts 24°
2026-04-22 11:49 12.63327 -24.94590 39054 ft 487 kts 24°
2026-04-22 11:50 12.69436 -24.91691 39054 ft 488 kts 24°
2026-04-22 11:50 12.75599 -24.88767 39056 ft 488 kts 24°
2026-04-22 11:51 12.81768 -24.85851 39058 ft 488 kts 24°
2026-04-22 11:51 12.87936 -24.82927 39056 ft 488 kts 24°
2026-04-22 11:52 12.94100 -24.80003 39056 ft 488 kts 24°
2026-04-22 11:52 13.00257 -24.77074 39051 ft 487 kts 24°
2026-04-22 11:53 13.06418 -24.74146 39051 ft 487 kts 24°
2026-04-22 11:53 13.12545 -24.71234 39050 ft 488 kts 24°
2026-04-22 11:54 13.18699 -24.68312 39047 ft 488 kts 24°
2026-04-22 11:54 13.24861 -24.65380 39049 ft 488 kts 24°
2026-04-22 11:55 13.31025 -24.62443 39047 ft 488 kts 24°
2026-04-22 11:55 13.37186 -24.59507 39052 ft 488 kts 24°
2026-04-22 11:56 13.42310 -24.57064 39053 ft 489 kts 24°
2026-04-22 11:56 13.48480 -24.54118 39052 ft 489 kts 24°
2026-04-22 11:57 13.54655 -24.51179 39055 ft 489 kts 24°
2026-04-22 11:57 13.60829 -24.48233 39051 ft 489 kts 24°
2026-04-22 11:58 13.66991 -24.45280 39052 ft 489 kts 24°
2026-04-22 11:58 13.73157 -24.42321 39055 ft 489 kts 24°
2026-04-22 11:59 13.79285 -24.39372 39055 ft 489 kts 24°
2026-04-22 11:59 13.85448 -24.36391 39052 ft 489 kts 24°
2026-04-22 12:00 13.91612 -24.33409 39056 ft 489 kts 24°
2026-04-22 12:00 13.97777 -24.30454 39053 ft 489 kts 24°
2026-04-22 12:01 14.03944 -24.27488 39054 ft 489 kts 24°
2026-04-22 12:01 14.10103 -24.24502 39056 ft 489 kts 24°
2026-04-22 12:02 14.16264 -24.21507 39057 ft 490 kts 24°
2026-04-22 12:02 14.22435 -24.18518 39058 ft 490 kts 24°
2026-04-22 12:03 14.28609 -24.15534 39058 ft 490 kts 24°
2026-04-22 12:03 14.34777 -24.12543 39060 ft 490 kts 24°
2026-04-22 12:04 14.40918 -24.09558 39058 ft 490 kts 24°
2026-04-22 12:04 14.47090 -24.06559 39058 ft 490 kts 24°
2026-04-22 12:05 14.53263 -24.03554 39060 ft 490 kts 24°
2026-04-22 12:05 14.59431 -24.00553 39063 ft 490 kts 23°
2026-04-22 12:06 14.65598 -23.97556 39059 ft 490 kts 23°
2026-04-22 12:06 14.71774 -23.94555 39057 ft 490 kts 23°
2026-04-22 12:07 14.77946 -23.91552 39054 ft 490 kts 23°
2026-04-22 12:07 14.84118 -23.88544 39050 ft 490 kts 23°
2026-04-22 12:08 14.90289 -23.85521 39053 ft 490 kts 23°
2026-04-22 12:08 14.96472 -23.82499 39050 ft 491 kts 23°
2026-04-22 12:09 15.02648 -23.79480 39050 ft 491 kts 23°
2026-04-22 12:09 15.08832 -23.76458 39054 ft 492 kts 23°
2026-04-22 12:10 15.14996 -23.73449 39053 ft 492 kts 23°
2026-04-22 12:10 15.21191 -23.70418 39055 ft 492 kts 23°
2026-04-22 12:11 15.27384 -23.67389 39058 ft 492 kts 23°
2026-04-22 12:11 15.33574 -23.64354 39053 ft 492 kts 23°
2026-04-22 12:12 15.39767 -23.61317 39056 ft 492 kts 23°
2026-04-22 12:12 15.45960 -23.58276 39053 ft 492 kts 23°
2026-04-22 12:13 15.52152 -23.55228 39054 ft 492 kts 23°
2026-04-22 12:13 15.58312 -23.52196 39053 ft 493 kts 23°
2026-04-22 12:14 15.64508 -23.49157 39055 ft 493 kts 23°
2026-04-22 12:14 15.70724 -23.46105 39054 ft 493 kts 23°
2026-04-22 12:15 15.76930 -23.43052 39056 ft 493 kts 23°
2026-04-22 12:15 15.83134 -23.39989 39055 ft 494 kts 23°
2026-04-22 12:16 15.89342 -23.36923 39054 ft 494 kts 23°
2026-04-22 12:16 15.95510 -23.33877 39059 ft 494 kts 23°
2026-04-22 12:17 16.01722 -23.30819 39060 ft 494 kts 22°
2026-04-22 12:17 16.07932 -23.27757 39057 ft 494 kts 23°
2026-04-22 12:18 16.14135 -23.24681 39060 ft 494 kts 23°
2026-04-22 12:18 16.20346 -23.21611 39063 ft 494 kts 22°
2026-04-22 12:19 16.26562 -23.18536 39061 ft 494 kts 22°
2026-04-22 12:19 16.32773 -23.15456 39066 ft 494 kts 22°
2026-04-22 12:20 16.38991 -23.12370 39069 ft 495 kts 22°
2026-04-22 12:20 16.45178 -23.09304 39073 ft 495 kts 22°
2026-04-22 12:21 16.51402 -23.06218 39077 ft 495 kts 22°
2026-04-22 12:21 16.57622 -23.03124 39076 ft 495 kts 22°
2026-04-22 12:22 16.63852 -23.00019 39077 ft 495 kts 22°
2026-04-22 12:22 16.70071 -22.96919 39076 ft 495 kts 22°
2026-04-22 12:23 16.76252 -22.93723 39077 ft 497 kts 25°
2026-04-22 12:23 16.82261 -22.90119 39077 ft 498 kts 28°
2026-04-22 12:24 16.88151 -22.86390 39075 ft 498 kts 28°
2026-04-22 12:24 16.94144 -22.82677 39075 ft 497 kts 27°
2026-04-22 12:25 17.00129 -22.79058 39075 ft 497 kts 27°
2026-04-22 12:25 17.06124 -22.75444 39073 ft 497 kts 27°
2026-04-22 12:26 17.12108 -22.71815 39073 ft 497 kts 27°
2026-04-22 12:26 17.18087 -22.68161 39073 ft 497 kts 27°
2026-04-22 12:27 17.24068 -22.64514 39073 ft 498 kts 27°
2026-04-22 12:27 17.30051 -22.60875 39075 ft 498 kts 27°
2026-04-22 12:28 17.35993 -22.57250 39075 ft 497 kts 26°
2026-04-22 12:28 17.41972 -22.53604 39074 ft 497 kts 26°
2026-04-22 12:29 17.47964 -22.49940 39073 ft 497 kts 26°
2026-04-22 12:29 17.53934 -22.46280 39069 ft 497 kts 26°
2026-04-22 12:30 17.62896 -22.40793 39074 ft 497 kts 26°
2026-04-22 12:31 17.68872 -22.37135 39074 ft 497 kts 26°
2026-04-22 12:31 17.74844 -22.33469 39072 ft 497 kts 26°
2026-04-22 12:32 17.80821 -22.29798 39076 ft 497 kts 26°
2026-04-22 12:32 17.89781 -22.24296 39083 ft 497 kts 26°
2026-04-22 12:33 17.95746 -22.20618 39078 ft 497 kts 26°
2026-04-22 12:33 18.01713 -22.16932 39080 ft 497 kts 26°
2026-04-22 12:34 18.07672 -22.13256 39073 ft 497 kts 26°
2026-04-22 12:34 18.13633 -22.09578 39078 ft 496 kts 26°
2026-04-22 12:35 18.19560 -22.05923 39075 ft 496 kts 26°
2026-04-22 12:35 18.25519 -22.02251 39075 ft 496 kts 26°
2026-04-22 12:36 18.31480 -21.98568 39072 ft 497 kts 26°
2026-04-22 12:36 18.37450 -21.94885 39074 ft 497 kts 26°
2026-04-22 12:37 18.43405 -21.91194 39077 ft 497 kts 26°
2026-04-22 12:37 18.49374 -21.87485 39079 ft 497 kts 26°
2026-04-22 12:38 18.55342 -21.83790 39081 ft 498 kts 26°
2026-04-22 12:38 18.60308 -21.80713 39078 ft 498 kts 26°
2026-04-22 12:39 18.69256 -21.75158 39080 ft 497 kts 26°
2026-04-22 12:40 18.75218 -21.71452 39078 ft 497 kts 26°
2026-04-22 12:40 18.81181 -21.67741 39077 ft 497 kts 26°
2026-04-22 12:41 18.87132 -21.64033 39067 ft 497 kts 26°
2026-04-22 12:41 18.93093 -21.60319 39068 ft 497 kts 26°
2026-04-22 12:42 18.99060 -21.56607 39073 ft 497 kts 26°
2026-04-22 12:42 19.04984 -21.52915 39073 ft 498 kts 26°
2026-04-22 12:43 19.10948 -21.49181 39067 ft 498 kts 26°
2026-04-22 12:43 19.16914 -21.45441 39069 ft 498 kts 26°
2026-04-22 12:44 19.22897 -21.41704 39070 ft 498 kts 26°
2026-04-22 12:44 19.28875 -21.37965 39068 ft 499 kts 26°
2026-04-22 12:45 19.34857 -21.34217 39065 ft 500 kts 26°
2026-04-22 12:45 19.40815 -21.30473 39071 ft 500 kts 26°
2026-04-22 12:46 19.46801 -21.26708 39078 ft 500 kts 26°
2026-04-22 12:46 19.52802 -21.22935 39070 ft 501 kts 25°
2026-04-22 12:47 19.58809 -21.19164 39069 ft 501 kts 25°
2026-04-22 12:47 19.64812 -21.15389 39065 ft 501 kts 25°
2026-04-22 12:48 19.70815 -21.11615 39066 ft 502 kts 25°
2026-04-22 12:48 19.76786 -21.07846 39065 ft 502 kts 25°
2026-04-22 12:49 19.82793 -21.04046 39064 ft 503 kts 25°
2026-04-22 12:49 19.88811 -21.00249 39068 ft 503 kts 25°
2026-04-22 12:50 19.94837 -20.96434 39068 ft 504 kts 25°
2026-04-22 12:50 20.00898 -20.92602 39069 ft 503 kts 25°
2026-04-22 12:51 20.06884 -20.88816 39068 ft 504 kts 25°
2026-04-22 12:51 20.12911 -20.85003 39067 ft 504 kts 25°
2026-04-22 12:52 20.18943 -20.81162 39069 ft 505 kts 25°
2026-04-22 12:52 20.24972 -20.77319 39070 ft 505 kts 25°
2026-04-22 12:53 20.31021 -20.73484 39072 ft 506 kts 25°
2026-04-22 12:53 20.37074 -20.69637 39071 ft 506 kts 25°
2026-04-22 12:54 20.43092 -20.65794 39068 ft 506 kts 25°
2026-04-22 12:54 20.49133 -20.61925 39063 ft 507 kts 25°
2026-04-22 12:55 20.55190 -20.58066 39063 ft 507 kts 25°
2026-04-22 12:55 20.61248 -20.54195 39062 ft 507 kts 25°
2026-04-22 12:56 20.67308 -20.50301 39060 ft 507 kts 25°
2026-04-22 12:56 20.73327 -20.46433 39068 ft 508 kts 25°
2026-04-22 12:57 20.79386 -20.42543 39060 ft 508 kts 25°
2026-04-22 12:57 20.85469 -20.38640 39063 ft 509 kts 25°
2026-04-22 12:58 20.91545 -20.34736 39066 ft 509 kts 25°
2026-04-22 12:58 20.97619 -20.30828 39066 ft 509 kts 25°
2026-04-22 12:59 21.03700 -20.26906 39067 ft 509 kts 25°
2026-04-22 12:59 21.09780 -20.22985 39064 ft 510 kts 25°
2026-04-22 13:00 21.15835 -20.19074 39063 ft 510 kts 25°
2026-04-22 13:00 21.21919 -20.15137 39062 ft 511 kts 25°
2026-04-22 13:01 21.28010 -20.11198 39063 ft 511 kts 25°
2026-04-22 13:01 21.34111 -20.07248 39064 ft 512 kts 25°
2026-04-22 13:02 21.40201 -20.03303 39065 ft 512 kts 25°
2026-04-22 13:02 21.46315 -19.99340 39055 ft 512 kts 25°
2026-04-22 13:03 21.52383 -19.95401 39053 ft 512 kts 25°
2026-04-22 13:03 21.58485 -19.91435 39051 ft 513 kts 25°
2026-04-22 13:04 21.64596 -19.87455 39042 ft 513 kts 25°
2026-04-22 13:04 21.70710 -19.83471 39042 ft 513 kts 25°
2026-04-22 13:05 21.76819 -19.79480 39046 ft 514 kts 25°
2026-04-22 13:05 21.82933 -19.75481 39049 ft 514 kts 25°
2026-04-22 13:06 21.89017 -19.71509 39048 ft 514 kts 24°
2026-04-22 13:06 21.95148 -19.67507 39046 ft 515 kts 24°
2026-04-22 13:07 22.01277 -19.63497 39044 ft 515 kts 24°
2026-04-22 13:07 22.07415 -19.59472 39051 ft 516 kts 24°
2026-04-22 13:08 22.13565 -19.55437 39051 ft 517 kts 24°
2026-04-22 13:08 22.19681 -19.51422 39052 ft 517 kts 24°
2026-04-22 13:09 22.25843 -19.47379 39057 ft 518 kts 24°
2026-04-22 13:09 22.32012 -19.43315 39054 ft 519 kts 24°
2026-04-22 13:10 22.38177 -19.39247 39058 ft 519 kts 24°
2026-04-22 13:10 22.44317 -19.35202 39056 ft 520 kts 24°
2026-04-22 13:11 22.50491 -19.31126 39058 ft 520 kts 24°
2026-04-22 13:11 22.56667 -19.27031 39056 ft 520 kts 24°
2026-04-22 13:12 22.62840 -19.22945 39054 ft 520 kts 24°
2026-04-22 13:12 22.69025 -19.18859 39047 ft 520 kts 24°
2026-04-22 13:13 22.75210 -19.14766 39051 ft 521 kts 23°
2026-04-22 13:13 22.81394 -19.10660 39040 ft 521 kts 24°
2026-04-22 13:14 22.87553 -19.06563 39041 ft 522 kts 23°
2026-04-22 13:14 22.93747 -19.02443 39055 ft 522 kts 23°
2026-04-22 13:15 22.99948 -18.98310 39060 ft 523 kts 23°
2026-04-22 13:15 23.06149 -18.94173 39063 ft 523 kts 23°
2026-04-22 13:16 23.12352 -18.90032 39064 ft 523 kts 23°
2026-04-22 13:16 23.18546 -18.85896 39060 ft 523 kts 23°
2026-04-22 13:17 23.24746 -18.81749 39064 ft 523 kts 23°
2026-04-22 13:17 23.30940 -18.77600 39065 ft 523 kts 23°
2026-04-22 13:18 23.37132 -18.73448 39062 ft 523 kts 23°
2026-04-22 13:18 23.42280 -18.69996 39061 ft 523 kts 23°
2026-04-22 13:19 23.48495 -18.65821 39061 ft 524 kts 23°
2026-04-22 13:19 23.54705 -18.61656 39060 ft 524 kts 23°
2026-04-22 13:20 23.60910 -18.57477 39058 ft 524 kts 23°
2026-04-22 13:20 23.67127 -18.53287 39060 ft 524 kts 23°
2026-04-22 13:21 23.73302 -18.49125 39058 ft 524 kts 23°
2026-04-22 13:21 23.79547 -18.44906 39055 ft 524 kts 23°
2026-04-22 13:22 23.85706 -18.40737 39053 ft 524 kts 23°
2026-04-22 13:22 23.91951 -18.36506 39049 ft 525 kts 23°
2026-04-22 13:23 23.98123 -18.32318 39044 ft 525 kts 23°
2026-04-22 13:23 24.04333 -18.28103 39047 ft 525 kts 23°
2026-04-22 13:24 24.10546 -18.23884 39051 ft 526 kts 23°
2026-04-22 13:24 24.16778 -18.19644 39052 ft 526 kts 23°
2026-04-22 13:25 24.23007 -18.15398 39054 ft 527 kts 23°
2026-04-22 13:25 24.29193 -18.11185 39056 ft 527 kts 23°
2026-04-22 13:26 24.35434 -18.06934 39052 ft 527 kts 22°
2026-04-22 13:26 24.41680 -18.02659 39053 ft 527 kts 23°
2026-04-22 13:27 24.47868 -17.98420 39051 ft 527 kts 23°
2026-04-22 13:27 24.54100 -17.94147 39049 ft 528 kts 23°
2026-04-22 13:28 24.60336 -17.89874 39048 ft 528 kts 22°
2026-04-22 13:28 24.66578 -17.85594 39048 ft 529 kts 23°
2026-04-22 13:29 24.72823 -17.81305 39048 ft 529 kts 22°
2026-04-22 13:29 24.79037 -17.77029 39051 ft 530 kts 23°
2026-04-22 13:30 24.85284 -17.72718 39053 ft 530 kts 23°
2026-04-22 13:30 24.91549 -17.68400 39056 ft 531 kts 23°
2026-04-22 13:31 24.97815 -17.64073 39057 ft 531 kts 23°
2026-04-22 13:31 25.04085 -17.59734 39058 ft 531 kts 23°
2026-04-22 13:32 25.10343 -17.55397 39056 ft 531 kts 23°
2026-04-22 13:32 25.16601 -17.51049 39056 ft 531 kts 23°
2026-04-22 13:33 25.22849 -17.46703 39055 ft 531 kts 23°
2026-04-22 13:33 25.29060 -17.42382 39057 ft 531 kts 23°
2026-04-22 13:34 25.35314 -17.38031 39060 ft 531 kts 23°
2026-04-22 13:34 25.41555 -17.33666 39058 ft 531 kts 23°
2026-04-22 13:35 25.47800 -17.29285 39064 ft 531 kts 23°
2026-04-22 13:35 25.54057 -17.24917 39055 ft 531 kts 22°
2026-04-22 13:36 25.60310 -17.20546 39053 ft 531 kts 22°
2026-04-22 13:36 25.66523 -17.16202 39052 ft 531 kts 22°
2026-04-22 13:37 25.72774 -17.11819 39059 ft 531 kts 22°
2026-04-22 13:37 25.79026 -17.07434 39058 ft 532 kts 22°
2026-04-22 13:38 25.85273 -17.03038 39056 ft 532 kts 22°
2026-04-22 13:38 25.94647 -16.96420 39059 ft 532 kts 22°
2026-04-22 13:39 26.00901 -16.91996 39056 ft 532 kts 22°
2026-04-22 13:39 26.07148 -16.87576 39055 ft 532 kts 22°
2026-04-22 13:40 26.13400 -16.83150 39060 ft 532 kts 22°
2026-04-22 13:40 26.19687 -16.78952 39061 ft 520 kts 14°
2026-04-22 13:41 26.22996 -16.77466 39060 ft 506 kts
2026-04-22 13:41 26.26348 -16.76277 39059 ft 505 kts
2026-04-22 13:41 26.33046 -16.73896 39061 ft 505 kts
2026-04-22 13:42 26.39738 -16.71504 39060 ft 505 kts
2026-04-22 13:42 26.46430 -16.69105 39061 ft 505 kts
2026-04-22 13:43 26.53123 -16.66704 39063 ft 504 kts
2026-04-22 13:43 26.59776 -16.64308 39064 ft 504 kts
2026-04-22 13:44 26.66456 -16.61903 39065 ft 504 kts
2026-04-22 13:44 26.73127 -16.59524 39055 ft 503 kts
2026-04-22 13:45 26.79798 -16.57152 39060 ft 503 kts
2026-04-22 13:45 26.86425 -16.54771 39064 ft 503 kts
2026-04-22 13:46 26.93085 -16.52364 39058 ft 503 kts
2026-04-22 13:46 26.99746 -16.49948 39064 ft 503 kts
2026-04-22 13:47 27.06404 -16.47538 39064 ft 503 kts
2026-04-22 13:47 27.13062 -16.45117 39063 ft 503 kts
2026-04-22 13:48 27.19722 -16.42688 39069 ft 503 kts
2026-04-22 13:48 27.26386 -16.40270 39064 ft 503 kts
2026-04-22 13:49 27.33047 -16.37854 38826 ft 502 kts
2026-04-22 13:49 27.36375 -16.36640 38141 ft 502 kts
2026-04-22 13:49 27.39701 -16.35429 37400 ft 502 kts
2026-04-22 13:50 27.41905 -16.34626 36909 ft 503 kts
2026-04-22 13:50 27.46319 -16.33015 35913 ft 504 kts
2026-04-22 13:50 27.49660 -16.31794 35165 ft 504 kts
2026-04-22 13:50 27.52997 -16.30575 34411 ft 505 kts
2026-04-22 13:51 27.56352 -16.29349 33590 ft 505 kts
2026-04-22 13:51 27.59700 -16.28123 32725 ft 505 kts
2026-04-22 13:51 27.63037 -16.26899 31876 ft 503 kts
2026-04-22 13:51 27.66364 -16.25675 31040 ft 501 kts 10°
2026-04-22 13:52 27.69676 -16.24456 30185 ft 499 kts 12°
2026-04-22 13:52 27.72928 -16.23256 29321 ft 495 kts 12°
2026-04-22 13:52 27.76217 -16.22041 28540 ft 488 kts 13°
2026-04-22 13:52 27.79426 -16.20859 27779 ft 482 kts 13°
2026-04-22 13:53 27.82600 -16.19693 27046 ft 477 kts 14°
2026-04-22 13:53 27.85741 -16.18539 26401 ft 470 kts 15°
2026-04-22 13:53 27.88772 -16.17349 25744 ft 466 kts 17°
2026-04-22 13:53 27.91796 -16.16058 25099 ft 462 kts 19°
2026-04-22 13:54 27.94758 -16.14722 24465 ft 457 kts 20°
2026-04-22 13:54 27.97697 -16.13367 23847 ft 453 kts 21°
2026-04-22 13:54 28.00603 -16.12031 23181 ft 445 kts 21°
2026-04-22 13:54 28.03454 -16.10743 22425 ft 439 kts 21°
2026-04-22 13:55 28.06284 -16.09487 21711 ft 434 kts 20°
2026-04-22 13:55 28.09082 -16.08256 21003 ft 429 kts 20°
2026-04-22 13:55 28.11848 -16.07041 20293 ft 424 kts 20°
2026-04-22 13:55 28.14581 -16.05839 19601 ft 419 kts 20°
2026-04-22 13:56 28.17321 -16.04762 18906 ft 414 kts 12°
2026-04-22 13:56 28.20103 -16.04302 18239 ft 406 kts 359°
2026-04-22 13:56 28.22924 -16.04505 17521 ft 399 kts 347°
2026-04-22 13:56 28.25565 -16.05337 17007 ft 389 kts 335°
2026-04-22 13:57 28.27925 -16.06670 16500 ft 380 kts 324°
2026-04-22 13:57 28.30097 -16.08346 15969 ft 376 kts 321°
2026-04-22 13:57 28.32239 -16.10025 15457 ft 372 kts 321°
2026-04-22 13:57 28.34386 -16.11711 14947 ft 369 kts 322°
2026-04-22 13:58 28.36460 -16.13341 14452 ft 366 kts 322°
2026-04-22 13:58 28.38546 -16.14979 13957 ft 363 kts 322°
2026-04-22 13:58 28.40614 -16.16605 13414 ft 360 kts 322°
2026-04-22 13:58 28.42662 -16.18217 12874 ft 356 kts 322°
2026-04-22 13:59 28.44692 -16.19810 12337 ft 353 kts 322°
2026-04-22 13:59 28.46701 -16.21392 11952 ft 346 kts 322°
2026-04-22 13:59 28.48632 -16.22914 11832 ft 330 kts 322°
2026-04-22 13:59 28.50484 -16.24372 11709 ft 318 kts 322°
2026-04-22 14:00 28.52215 -16.25859 11526 ft 305 kts 313°
2026-04-22 14:00 28.53553 -16.27682 11216 ft 297 kts 298°
2026-04-22 14:00 28.54448 -16.29761 10858 ft 290 kts 285°
2026-04-22 14:00 28.55041 -16.31943 10511 ft 288 kts 283°
2026-04-22 14:01 28.55430 -16.33382 10294 ft 286 kts 283°
2026-04-22 14:01 28.56013 -16.35532 9898 ft 283 kts 283°
2026-04-22 14:01 28.56593 -16.37664 9417 ft 281 kts 284°
2026-04-22 14:01 28.57167 -16.39781 8918 ft 279 kts 284°
2026-04-22 14:02 28.57735 -16.41887 8441 ft 277 kts 284°
2026-04-22 14:02 28.58298 -16.43979 7959 ft 276 kts 284°
2026-04-22 14:02 28.58856 -16.46059 7510 ft 275 kts 284°
2026-04-22 14:02 28.59410 -16.48132 7133 ft 271 kts 284°
2026-04-22 14:03 28.59948 -16.50136 7008 ft 258 kts 284°
2026-04-22 14:03 28.60458 -16.52039 6893 ft 245 kts 284°
2026-04-22 14:03 28.60937 -16.53827 6767 ft 233 kts 284°
2026-04-22 14:03 28.61394 -16.55554 6657 ft 222 kts 282°
2026-04-22 14:04 28.61422 -16.57227 6526 ft 206 kts 251°
2026-04-22 14:04 28.60748 -16.58588 6386 ft 194 kts 223°
2026-04-22 14:04 28.59623 -16.59378 6139 ft 190 kts 199°
2026-04-22 14:04 28.58357 -16.59826 6024 ft 192 kts 188°
2026-04-22 14:05 28.57061 -16.59506 5955 ft 198 kts 148°
2026-04-22 14:05 28.56208 -16.58274 5652 ft 206 kts 113°
2026-04-22 14:05 28.55218 -16.55201 5215 ft 201 kts 112°
2026-04-22 14:06 28.54738 -16.53735 5206 ft 196 kts 112°
2026-04-22 14:06 28.54253 -16.52263 5112 ft 201 kts 112°
2026-04-22 14:06 28.53761 -16.50773 4879 ft 201 kts 112°
2026-04-22 14:06 28.53271 -16.49285 4620 ft 199 kts 112°
2026-04-22 14:07 28.52792 -16.47834 4353 ft 194 kts 111°
2026-04-22 14:07 28.52322 -16.46414 4099 ft 190 kts 111°
2026-04-22 14:07 28.51864 -16.45027 3849 ft 182 kts 110°
2026-04-22 14:07 28.51434 -16.43726 3624 ft 172 kts 110°
2026-04-22 14:08 28.51019 -16.42474 3403 ft 171 kts 110°
2026-04-22 14:08 28.50609 -16.41236 3173 ft 159 kts 110°
2026-04-22 14:08 28.50242 -16.40127 2955 ft 141 kts 109°
2026-04-22 14:08 28.49911 -16.39123 2760 ft 132 kts 109°
2026-04-22 14:09 28.49595 -16.38160 2548 ft 128 kts 109°
2026-04-22 14:09 28.49284 -16.37213 2405 ft 127 kts 109°
2026-04-22 14:09 28.48974 -16.36275 2210 ft 126 kts 109°
2026-04-22 14:09 28.48666 -16.35350 2069 ft 120 kts 108°
2026-04-22 14:10 28.48413 -16.34590 2051 ft 83 kts 111°
2026-04-22 14:10 28.48250 -16.34105 2044 ft 54 kts 110°
2026-04-22 14:10 28.48156 -16.33774 2039 ft 27 kts 96°
2026-04-22 14:10 28.48138 -16.33602 2034 ft 13 kts 97°
2026-04-22 14:11 28.48187 -16.33568 2036 ft 12 kts 309°
2026-04-22 14:11 28.48216 -16.33653 2036 ft 12 kts 290°
2026-04-22 14:11 28.48245 -16.33738 2037 ft 11 kts 290°
2026-04-22 14:11 28.48272 -16.33823 2039 ft 12 kts 290°
2026-04-22 14:12 28.48301 -16.33911 2040 ft 12 kts 291°
2026-04-22 14:12 28.48331 -16.34000 2042 ft 11 kts 291°
2026-04-22 14:12 28.48359 -16.34084 2043 ft 12 kts 290°
2026-04-22 14:12 28.48387 -16.34171 2045 ft 12 kts 291°
2026-04-22 14:13 28.48417 -16.34260 2047 ft 12 kts 290°
2026-04-22 14:13 28.48449 -16.34354 2051 ft 13 kts 290°
2026-04-22 14:13 28.48481 -16.34452 2051 ft 13 kts 290°
2026-04-22 14:13 28.48514 -16.34552 2051 ft 13 kts 292°
2026-04-22 14:14 28.48571 -16.34573 2052 ft 10 kts 20°
2026-04-22 14:14 28.48620 -16.34553 2052 ft 5 kts 18°
2026-04-22 14:14 28.48640 -16.34544 2052 ft 2 kts 25°
2026-04-22 14:14 28.48642 -16.34543 2052 ft 0 kts 25°